sat.trackr.live / text

‹ back to catalog

QIANFAN-136

NORAD 69082 · 2026-104K

PAYLOAD ACTIVE UNKNOWN

§ Identity

Operator
Country
PRC
Launch date
2026-05-12
Launch site
TAISC
Launch vehicle
Mass (kg)
RCS (m²)

External: N2YO · Heavens-Above · Gunter

§ Orbital elements

Epoch: 2026-09-20T04:34:37.456320Z

Period
106.59 min
Inclination
88.9904°
Eccentricity
0.0002074
Mean motion
13.51032315 rev/d
Perigee alt
1,066.9 km
Apogee alt
1,070.0 km
Semi-major
7,446.6 km
B*
8.7152e-5
RAAN
331.7971°
Arg perigee
113.0523°
Mean anomaly
247.0847°
Rev number
1,797

§ Raw data

QIANFAN-1361 69082U 26104K   26263.19071130  .00000068  00000+0  87152-4 0  99992 69082  88.9904 331.7971 0002074 113.0523 247.0847 13.51032315 17974

JSON: /api/v1/satellites/69082 · /tle

For live sub-satellite position, see the globe view (requires WebGL).

§ Visibility from observer

Set your observer location to see the next 7 days of passes ≥ 10°. The values pass through the URL so the page stays shareable.

No JS? Fill the form by hand. The geolocation button needs JavaScript.